Find Local Weather

World > North America > United States > Texas

Dallas, Texas Regional Weather

Lat: 32.79N, Lon: 96.77W
Wx Zone: TXZ119
Warning FLW WEATHER ALERT - (More Info. Click Here) Warning
Feedback
Expires:201809232000;;098231
ASUS44 KFWD 231915
RWRTX 
NORTH TEXAS HOURLY WEATHER ROUNDUP
NATIONAL WEATHER SERVICE FORT WORTH TX
200 PM CDT SUN SEP 23 2018

NOTE: "FAIR" INDICATES FEW OR NO CLOUDS BELOW 12,000 FEET WITH NO
SIGNIFICANT WEATHER AND/OR OBSTRUCTIONS TO VISIBILITY.


TXZ118-119-232000-
DALLAS/FORT WORTH METROPLEX
  
CITY           SKY/WX    TMP DP  RH WIND       PRES   REMARKS
DFW AIRPORT    DRIZZLE   70  67  90 N8        29.92F                  
DALLAS LOVE    CLOUDY    72  68  87 N7        29.93F                  
FTW MEACHAM    CLOUDY    64  32  30 N8        29.93F                  
DAL-EXECUTIVE  CLOUDY    71  68  90 N8        29.92F                  
FTW-ALLIANCE   CLOUDY    70  68  93 NE10      29.94F                  
FTW-SPINKS     CLOUDY    70  68  94 N8        29.96F FOG              
ARLINGTON      CLOUDY    70  69  97 N8        29.94F                  
GRAND PRAIRIE  CLOUDY    70  70 100 N6        29.95F FOG              
ADDISON        CLOUDY    70  66  88 N5        29.95F                  
MESQUITE       CLOUDY    72  70  94 NW6       29.93F                  
LANCASTER      CLOUDY    72  69  89 N6        29.93F                  
$$


SKY/WX - Weather  TMP - Temperature  DP - Dew Point  RH - Relative Humidity
WIND - Wind Direction/Speed PRES - Barometric Pressure